LAV715P EDDL-EDDF

Flight info

Callsign LAV715P
Flight time 0h 31m
Altitude 23000
Route COL5Z/05R COL T911 ROLIS ROLIS5A
Aircraft B738/M-SDE2E3FGHIRWXY/LB1

Departure

Time 2026-05-06 09:43
Airport Düsseldorf Airport (EDDL)

Arrival

Time 2026-05-06 10:14
Airport Frankfurt Main Airport (EDDF)
Time Latitude Longitude Altitude Speed Heading
2026-05-06 09:24 51.27528 6.75786 117 ft 0 kts 249°
2026-05-06 09:35 51.27529 6.75790 117 ft 1 kts 249°
2026-05-06 09:35 51.27530 6.75797 113 ft 1 kts 249°
2026-05-06 09:36 51.27535 6.75817 116 ft 2 kts 249°
2026-05-06 09:36 51.27540 6.75837 114 ft 2 kts 252°
2026-05-06 09:36 51.27541 6.75860 114 ft 2 kts 293°
2026-05-06 09:36 51.27534 6.75878 115 ft 2 kts 310°
2026-05-06 09:37 51.27523 6.75893 113 ft 2 kts 334°
2026-05-06 09:37 51.27521 6.75895 117 ft 0 kts 334°
2026-05-06 09:39 51.27529 6.75890 113 ft 3 kts 337°
2026-05-06 09:39 51.27546 6.75878 115 ft 4 kts 336°
2026-05-06 09:39 51.27579 6.75855 115 ft 8 kts 338°
2026-05-06 09:39 51.27628 6.75820 114 ft 8 kts 335°
2026-05-06 09:40 51.27688 6.75803 117 ft 9 kts 359°
2026-05-06 09:40 51.27766 6.75806 117 ft 16 kts
2026-05-06 09:40 51.27982 6.75802 115 ft 15 kts 329°
2026-05-06 09:41 51.27999 6.75731 117 ft 6 kts 264°
2026-05-06 09:41 51.27963 6.75652 116 ft 11 kts 212°
2026-05-06 09:41 51.27914 6.75566 117 ft 10 kts 232°
2026-05-06 09:41 51.27870 6.75474 115 ft 10 kts 233°
2026-05-06 09:42 51.27842 6.75375 117 ft 10 kts 282°
2026-05-06 09:42 51.27897 6.75304 116 ft 13 kts 332°
2026-05-06 09:42 51.27992 6.75281 114 ft 16 kts 28°
2026-05-06 09:42 51.28110 6.75504 115 ft 55 kts 52°
2026-05-06 09:43 51.28507 6.76342 114 ft 133 kts 52°
2026-05-06 09:43 51.29175 6.77732 536 ft 164 kts 50°
2026-05-06 09:43 51.29831 6.79110 1853 ft 152 kts 50°
2026-05-06 09:43 51.30502 6.80514 2566 ft 169 kts 51°
2026-05-06 09:44 51.31272 6.82135 2957 ft 197 kts 52°
2026-05-06 09:44 51.32152 6.84008 3187 ft 224 kts 52°
2026-05-06 09:44 51.33136 6.86107 3429 ft 249 kts 53°
2026-05-06 09:44 51.34185 6.88428 4001 ft 263 kts 54°
2026-05-06 09:45 51.35107 6.90970 4650 ft 267 kts 73°
2026-05-06 09:45 51.35218 6.93909 5249 ft 268 kts 97°
2026-05-06 09:45 51.34944 6.96841 6111 ft 271 kts 100°
2026-05-06 09:45 51.34620 6.99821 6959 ft 275 kts 101°
2026-05-06 09:46 51.34290 7.02886 7719 ft 284 kts 101°
2026-05-06 09:46 51.33964 7.06020 8626 ft 287 kts 101°
2026-05-06 09:46 51.33638 7.09199 9499 ft 292 kts 101°
2026-05-06 09:46 51.33307 7.12447 10200 ft 302 kts 102°
2026-05-06 09:47 51.32623 7.15738 10402 ft 324 kts 124°
2026-05-06 09:47 51.31014 7.18359 10601 ft 342 kts 151°
2026-05-06 09:47 51.28747 7.19695 11041 ft 353 kts 167°
2026-05-06 09:47 51.26354 7.20680 11723 ft 358 kts 167°
2026-05-06 09:48 51.23927 7.21670 12460 ft 362 kts 167°
2026-05-06 09:48 51.21479 7.22693 13218 ft 366 kts 166°
2026-05-06 09:48 51.19015 7.23753 13953 ft 370 kts 166°
2026-05-06 09:48 51.16511 7.24846 14711 ft 373 kts 166°
2026-05-06 09:49 51.13994 7.25951 15535 ft 376 kts 166°
2026-05-06 09:49 51.11485 7.27191 16307 ft 381 kts 158°
2026-05-06 09:49 51.09161 7.29277 17063 ft 386 kts 150°
2026-05-06 09:49 51.06875 7.31562 17795 ft 390 kts 150°
2026-05-06 09:50 51.04567 7.33886 18423 ft 395 kts 150°
2026-05-06 09:50 51.02260 7.36192 19002 ft 399 kts 150°
2026-05-06 09:50 50.99896 7.38531 19630 ft 402 kts 150°
2026-05-06 09:50 50.97507 7.40872 20261 ft 405 kts 150°
2026-05-06 09:51 50.95097 7.43221 20895 ft 409 kts 150°
2026-05-06 09:51 50.92663 7.45584 21539 ft 411 kts 150°
2026-05-06 09:51 50.90217 7.47955 22143 ft 413 kts 150°
2026-05-06 09:51 50.87750 7.50342 22445 ft 421 kts 150°
2026-05-06 09:52 50.85239 7.52770 22341 ft 421 kts 150°
2026-05-06 09:52 50.82753 7.55174 22308 ft 415 kts 150°
2026-05-06 09:52 50.80317 7.57526 21994 ft 404 kts 151°
2026-05-06 09:52 50.77914 7.59800 21352 ft 401 kts 154°
2026-05-06 09:53 50.75408 7.61715 20566 ft 400 kts 159°
2026-05-06 09:53 50.72845 7.63388 19852 ft 398 kts 161°
2026-05-06 09:53 50.70278 7.64992 19252 ft 394 kts 161°
2026-05-06 09:53 50.67739 7.66589 18694 ft 390 kts 161°
2026-05-06 09:54 50.65268 7.68172 18125 ft 387 kts 160°
2026-05-06 09:54 50.62790 7.69787 17467 ft 384 kts 160°
2026-05-06 09:54 50.60329 7.71408 16820 ft 381 kts 160°
2026-05-06 09:54 50.57891 7.73020 16214 ft 379 kts 160°
2026-05-06 09:55 50.55471 7.74623 15600 ft 376 kts 160°
2026-05-06 09:55 50.53864 7.75686 15187 ft 375 kts 160°
2026-05-06 09:55 50.51462 7.77274 14597 ft 373 kts 160°
2026-05-06 09:55 50.49077 7.78849 14004 ft 370 kts 160°
2026-05-06 09:56 50.46702 7.80414 13439 ft 368 kts 160°
2026-05-06 09:56 50.44353 7.81998 12848 ft 366 kts 156°
2026-05-06 09:56 50.42173 7.84041 12278 ft 366 kts 146°
2026-05-06 09:56 50.40180 7.86507 11749 ft 362 kts 143°
2026-05-06 09:57 50.38230 7.88981 11207 ft 359 kts 143°
2026-05-06 09:57 50.36319 7.91397 10803 ft 353 kts 144°
2026-05-06 09:57 50.34417 7.93784 10704 ft 339 kts 144°
2026-05-06 09:57 50.32633 7.96006 10606 ft 326 kts 144°
2026-05-06 09:58 50.30890 7.98165 10511 ft 313 kts 144°
2026-05-06 09:58 50.29211 8.00239 10434 ft 301 kts 145°
2026-05-06 09:58 50.27597 8.02230 10355 ft 290 kts 145°
2026-05-06 09:58 50.26078 8.04222 10266 ft 282 kts 137°
2026-05-06 09:59 50.24814 8.06542 10057 ft 279 kts 131°
2026-05-06 09:59 50.23650 8.08963 9799 ft 278 kts 130°
2026-05-06 09:59 50.22505 8.11384 9606 ft 274 kts 130°
2026-05-06 09:59 50.21371 8.13761 9496 ft 272 kts 130°
2026-05-06 10:00 50.20234 8.16115 9410 ft 271 kts 130°
2026-05-06 10:00 50.19083 8.18474 9357 ft 275 kts 131°
2026-05-06 10:00 50.17913 8.20857 9290 ft 279 kts 131°
2026-05-06 10:00 50.16732 8.23255 9225 ft 278 kts 131°
2026-05-06 10:01 50.15551 8.25649 9164 ft 277 kts 131°
2026-05-06 10:01 50.14376 8.28025 9081 ft 276 kts 131°
2026-05-06 10:01 50.13209 8.30378 9021 ft 274 kts 131°
2026-05-06 10:01 50.12054 8.32702 8863 ft 277 kts 131°
2026-05-06 10:02 50.10875 8.35114 8601 ft 282 kts 126°
2026-05-06 10:02 50.10202 8.37996 8312 ft 288 kts 96°
2026-05-06 10:02 50.10459 8.41070 8074 ft 287 kts 73°
2026-05-06 10:02 50.11133 8.43976 7821 ft 284 kts 70°
2026-05-06 10:03 50.11846 8.46842 7540 ft 282 kts 70°
2026-05-06 10:03 50.12555 8.49686 7295 ft 281 kts 70°
2026-05-06 10:03 50.13256 8.52539 7047 ft 281 kts 70°
2026-05-06 10:03 50.13949 8.55394 6799 ft 281 kts 70°
2026-05-06 10:04 50.14635 8.58243 6554 ft 280 kts 70°
2026-05-06 10:04 50.15303 8.61040 6317 ft 278 kts 70°
2026-05-06 10:04 50.15974 8.63856 6067 ft 276 kts 70°
2026-05-06 10:04 50.16639 8.66655 5794 ft 274 kts 70°
2026-05-06 10:05 50.17299 8.69435 5541 ft 273 kts 70°
2026-05-06 10:05 50.17957 8.72205 5278 ft 271 kts 70°
2026-05-06 10:05 50.18609 8.74958 5034 ft 270 kts 70°
2026-05-06 10:05 50.19261 8.77707 4769 ft 269 kts 70°
2026-05-06 10:06 50.19906 8.80442 4534 ft 268 kts 71°
2026-05-06 10:06 50.20551 8.83180 4279 ft 269 kts 71°
2026-05-06 10:06 50.21083 8.85970 4024 ft 266 kts 88°
2026-05-06 10:06 50.20828 8.88740 3988 ft 255 kts 114°
2026-05-06 10:07 50.19961 8.91114 3994 ft 250 kts 128°
2026-05-06 10:07 50.18931 8.93288 3993 ft 246 kts 130°
2026-05-06 10:07 50.17910 8.95388 3967 ft 240 kts 131°
2026-05-06 10:07 50.16680 8.96984 3975 ft 224 kts 160°
2026-05-06 10:08 50.15214 8.97369 3967 ft 209 kts 191°
2026-05-06 10:08 50.14021 8.96330 3986 ft 196 kts 232°
2026-05-06 10:08 50.13262 8.94562 3990 ft 196 kts 236°
2026-05-06 10:08 50.12556 8.92757 3998 ft 201 kts 240°
2026-05-06 10:09 50.11889 8.90825 3997 ft 204 kts 243°
2026-05-06 10:09 50.11300 8.88793 3990 ft 206 kts 247°
2026-05-06 10:09 50.10770 8.86716 3981 ft 206 kts 248°
2026-05-06 10:09 50.10258 8.84626 3836 ft 207 kts 249°
2026-05-06 10:10 50.09752 8.82534 3581 ft 204 kts 248°
2026-05-06 10:10 50.09262 8.80498 3310 ft 198 kts 248°
2026-05-06 10:10 50.08786 8.78527 3048 ft 189 kts 248°
2026-05-06 10:10 50.08332 8.76645 2796 ft 182 kts 248°
2026-05-06 10:11 50.07899 8.74852 2542 ft 172 kts 249°
2026-05-06 10:11 50.07500 8.73194 2336 ft 159 kts 248°
2026-05-06 10:11 50.07132 8.71664 2121 ft 142 kts 248°
2026-05-06 10:11 50.06809 8.70325 1949 ft 127 kts 248°
2026-05-06 10:12 50.06515 8.69102 1793 ft 123 kts 246°
2026-05-06 10:12 50.06211 8.67843 1642 ft 127 kts 247°
2026-05-06 10:12 50.05888 8.66536 1566 ft 129 kts 246°
2026-05-06 10:12 50.05574 8.65251 1418 ft 124 kts 247°
2026-05-06 10:13 50.05287 8.64029 1234 ft 118 kts 248°
2026-05-06 10:13 50.04992 8.62795 1042 ft 125 kts 247°
2026-05-06 10:13 50.04693 8.61515 862 ft 125 kts 245°
2026-05-06 10:13 50.04381 8.60248 647 ft 126 kts 247°
2026-05-06 10:14 50.04082 8.58978 463 ft 123 kts 247°
2026-05-06 10:14 50.03798 8.57766 362 ft 111 kts 248°
2026-05-06 10:14 50.03560 8.56790 351 ft 80 kts 249°
2026-05-06 10:14 50.03439 8.56210 350 ft 33 kts 264°
2026-05-06 10:15 50.03449 8.55943 353 ft 14 kts 279°
2026-05-06 10:15 50.03465 8.55796 350 ft 14 kts 280°
2026-05-06 10:15 50.03468 8.55774 350 ft 1 kts 281°
2026-05-06 10:15 50.03470 8.55764 349 ft 1 kts 281°
2026-05-06 10:16 50.03471 8.55752 343 ft 1 kts 282°
2026-05-06 10:16 50.03474 8.55735 346 ft 2 kts 283°
2026-05-06 10:16 50.03479 8.55716 349 ft 2 kts 299°
2026-05-06 10:16 50.03495 8.55703 351 ft 6 kts 343°
2026-05-06 10:17 50.03555 8.55745 349 ft 11 kts 57°
2026-05-06 10:17 50.03585 8.55860 353 ft 14 kts 70°
2026-05-06 10:17 50.03634 8.56067 354 ft 21 kts 69°
2026-05-06 10:17 50.03685 8.56281 356 ft 21 kts 70°
2026-05-06 10:18 50.03734 8.56488 353 ft 20 kts 70°
2026-05-06 10:18 50.03796 8.56647 352 ft 16 kts 24°
2026-05-06 10:18 50.03897 8.56683 356 ft 15 kts 11°
2026-05-06 10:18 50.04012 8.56720 356 ft 18 kts 12°
2026-05-06 10:19 50.04120 8.56755 357 ft 12 kts 12°
2026-05-06 10:19 50.04172 8.56772 357 ft 2 kts 11°
2026-05-06 10:19 50.04175 8.56773 357 ft 0 kts 11°
2026-05-06 10:20 50.04176 8.56773 357 ft 0 kts 12°
2026-05-06 10:20 50.04194 8.56779 361 ft 6 kts 12°
2026-05-06 10:20 50.04252 8.56798 364 ft 10 kts 11°
2026-05-06 10:21 50.04325 8.56821 359 ft 11 kts 11°
2026-05-06 10:21 50.04405 8.56846 362 ft 12 kts
2026-05-06 10:21 50.04468 8.56902 360 ft 8 kts 71°
2026-05-06 10:21 50.04427 8.56943 363 ft 7 kts 163°
2026-05-06 10:22 50.04388 8.56966 361 ft 1 kts 159°
2026-05-06 10:22 50.04381 8.56970 359 ft 0 kts 159°